Regional Weather Roundup
Issued by NWS

Home | Current Version | Previous Version | Text Only | Print | Product List | Glossary Off
Versions: 1 2 3 4 5 6 7 8 9 10 11 12 13 14 15 16 17 18 19 20 21 22 23 24 25 26 27 28 29 30 31 32 33 34 35 36 37 38 39 40 41 42 43 44 45 46 47 48 49 50

000
ASUS45 KTFX 281404
RWRMT
MONTANA HOURLY WEATHER ROUNDUP
NATIONAL WEATHER SERVICE GREAT FALLS MT
704 AM MST FRI NOV 28 2014

NOTE: "FAIR" INDICATES FEW OR NO CLOUDS BELOW 12000 FEET WITH NO
SIGNIFICANT WEATHER AND/OR OBSTRUCTIONS TO VISIBILITY.

* THESE STATIONS ARE NOT UNDER NWS QUALITY CONTROL. THEY DO NOT
   REPORT WEATHER SUCH AS PRECIPITATION OR FOG.

MTZ001>007-043-281500-
WEST OF THE DIVIDE
CITY           SKY/WX    TMP DP  RH WIND       PRES   REMARKS
KALISPELL      CLOUDY    43  37  79 S6        29.54F
MISSOULA       LGT RAIN  45  37  74 SE7       29.69S
BUTTE          CLOUDY    43  30  60 S16G24    29.75R
MULLAN PASS    FOG       36  36 100 SW17G33   29.61S VSB 3    WCI  26
* ESSEX        N/A       39  36  89 SW3G8      N/A
* LINCOLN      N/A       40  35  82 W4         N/A
* LOOKOUT PASS N/A       42  37  83 SE11G29    N/A
* POLSON       N/A       41  36  82 S3G10      N/A
* RONAN APT    PTCLDY    46  37  71 SE9        N/A
* SEELEY LAKE  N/A       41  35  79 S2G11      N/A
* THOMP F APT  MOCLDY    33  25  72 NE4        N/A
* YAAK HILL    N/A       49  35  59 SW4G12     N/A
$$

MTZ008-052>055-281500-
SOUTHWEST MONTANA
CITY           SKY/WX    TMP DP  RH WIND       PRES   REMARKS
BOZEMAN        CLOUDY    48  27  44 CALM      29.71S
DILLON         CLOUDY    43  28  56 SE9       29.74F
* W YELLOWSTON CLOUDY    37  26  64 SW5G15     N/A   WCI  33
* ENNIS APT    CLOUDY   N/A N/A N/A N/A        N/A
* THREE FORKS  CLOUDY    52  52 100 S11G23     N/A
* BOULDER HILL N/A       41  23  49 S13        N/A
* MONIDA PASS  N/A       33  26  75 S22G27     N/A   WCI  21
* RAYNOLDS PAS N/A       40  28  62 S12G20     N/A   WCI  33
* WHITEHALL    N/A       50  26  39 SW16G27    N/A
* WISE RIVER   N/A       41  33  73 W15G23     N/A
$$

MTZ009>010-012-014-046-048-049-054-281500-
EAST SLOPES AND CENTRAL MONTANA
CITY           SKY/WX    TMP DP  RH WIND       PRES   REMARKS
CUT BANK       CLEAR     41  34  76 SW26G35   29.42F
GREAT FALLS    PTCLDY    48  34  59 SW24G36   29.52F
HELENA         CLOUDY    45  34  65 S8        29.65F
MALMSTROM AFB  PTCLDY    50  34  54 SW24G35   29.54F
* DEARBORN     N/A       53  33  47 S8G16      N/A
* EAST GLACIER N/A       39  35  86 W16G24     N/A   WCI  30
* MONARCH      N/A       45  22  40 SW19G26    N/A
* PENDROY      N/A       41  35  79 W18        N/A
* ROGERS PASS  N/A       39  33  79 SE12G21    N/A   WCI  32
* SAINT MARY   N/A       39  37  93 S6G15      N/A   WCI  35
* SWEET GRASS  N/A       19  19 100 N12        N/A   WCI   6
$$

MTZ011-013-016-021-035-040-045-047-050-051-281500-
NORTH CENTRAL MONTANA
CITY           SKY/WX    TMP DP  RH WIND       PRES   REMARKS
HAVRE          FOG       27  25  92 E6        29.49F VSB 1/2  WCI  20
LEWISTOWN      MOCLDY    46  30  54 W12       29.56F
* N BAR RANCH  CLEAR     45  28  51 SW12      29.57F
* CHESTER      N/A       16  13  88 N/A        N/A
* DENTON       N/A       44  31  60 SW14       N/A
* GEYSER       N/A       50  27  41 SW24G30    N/A
* JUDITH GAP   N/A       50  25  38 S4G9       N/A
* LOMA         N/A       42  34  73 NE6        N/A
$$

MTZ017>020-022>027-061-062-281500-
NORTHEAST MONTANA
CITY           SKY/WX    TMP DP  RH WIND       PRES   REMARKS
GLASGOW        FOG       19  16  88 E17       29.57F WCI   4
GLENDIVE       CLOUDY    23  21  92 NE3       29.62S
JORDAN         CLOUDY    30  28  92 N3        29.56F
SIDNEY         MOCLDY    19  16  88 CALM      29.67F
WOLF POINT     CLOUDY    18  16  92 E12       29.65F WCI   5
* BEAVER HILL  N/A       40  31  70 S8G14      N/A   WCI  35
* CIRCLE       N/A       23  21  92 NE6        N/A   WCI  16
* LINDSAY DVD  N/A       46  35  66 SW12       N/A
* NAVAJO       N/A       11   8  88 SE7        N/A
* SACO         N/A       20  18  92 E9         N/A   WCI  10
$$

MTZ028>042-056>058-281500-
SOUTHCENTRAL AND SOUTHEAST MONTANA
CITY           SKY/WX    TMP DP  RH WIND       PRES   REMARKS
BAKER          CLOUDY    43  30  60 SW14      29.63F
BILLINGS       CLOUDY    48  28  46 SW12      29.64F
LIVINGSTON     CLOUDY    54  25  33 SW39G52   29.64F
MILES CITY     CLOUDY    37  30  76 SE10      29.61F WCI  30
* LAUREL APT   CLOUDY    43  21  42 N/A        N/A
* ALZADA       N/A       37  29  73 E4         N/A
* HYSHAM       N/A       51  23  33 W7G12      N/A
* LAME DEER    N/A       50  27  41 SW9        N/A
* REED POINT   N/A       56  26  32 W17G23     N/A
* ROSCOE HILL  N/A       51  10  19 SW26G44    N/A
$$

REGIONAL REPORTS...DAKOTAS
CITY           SKY/WX    TMP DP  RH WIND       PRES   REMARKS
WILLISTON      CLOUDY    16  12  84 E10       29.69F WCI   4
DICKINSON      CLOUDY    18  14  84 E9        29.62F WCI   7
BEACH          MOCLDY    36  32  85 SW3       29.61F
CROSBY         FOG        9   5  84 E15       29.73F WCI  -8
BISMARCK       MOCLDY    10   7  88 E7        29.79R WCI  -1
GRAND FORKS    LGT SNOW  12   7  80 E12       29.96F WCI  -2
FARGO          CLOUDY    14   7  73 SE8       29.96F WCI   3
BUFFALO SD     MOCLDY    39  28  65 W7        29.59S WCI  34
RAPID CITY     PTCLDY    39  28  65 N14       29.70S WCI  31
$$

REGIONAL REPORTS...WYOMING/IDAHO/WASHINGTON
CITY           SKY/WX    TMP DP  RH WIND       PRES   REMARKS
GILLETTE       CLOUDY    45  27  49 SW16      29.72F
SHERIDAN       CLOUDY    55  21  27 W16G37    29.69S
CODY           MOCLDY    54  19  25 W24G40    29.70F
YELLOWSTONE LA CLOUDY    37  19  48 VRB6      29.93F WCI  32
SALMON         CLOUDY    45  30  56 CALM      29.79S
MULLAN PASS    FOG       36  36 100 SW17G33   29.61S VSB 3    WCI  26
SAND POINT     CLOUDY    50  41  71 SW12G22   29.54F
SPOKANE        MOCLDY    48  41  77 S23G33    29.56F
$$

REGIONAL REPORTS...ALBERTA
CITY           SKY/WX    TMP DP  RH WIND       PRES   REMARKS
EDMONTON       LGT SNOW  -4 -11  71 N10       29.79F VSB 1    WCI -21
$$

REGIONAL REPORTS...SASKATCHEWAN
CITY           SKY/WX    TMP DP  RH WIND       PRES   REMARKS
REGINA         LGT SNOW  12   9  88 SE20      29.72S VSB 1 1/2 WCI  -6

$$




USA.gov is the U.S. government's official web portal to all federal, state and local government web resources and services.